| time (UTC) | temp C | wind direction | speed KPH | gust KPH | rain 1hr cm | rain 24hr cm | rain mn cm | humidity % | barometer mb |
| 20260506135708 | 12 | 40 | 3.2 | 3.2 | 0.00 | 0.00 | 0.00 | 84 | 1012.0 |
| 20260506135204 | 11 | 318 | 4.8 | 4.8 | 0.00 | 0.00 | 0.00 | 83 | 1012.0 |
| 20260506134701 | 12 | 56 | 6.4 | 8.0 | 0.00 | 0.00 | 0.00 | 83 | 1012.0 |
| 20260506134157 | 11 | 348 | 4.8 | 4.8 | 0.00 | 0.00 | 0.00 | 84 | 1012.0 |
| 20260506133654 | 11 | 357 | 6.4 | 8.0 | 0.00 | 0.00 | 0.00 | 84 | 1012.0 |
| 20260506133151 | 11 | 318 | 3.2 | 3.2 | 0.00 | 0.00 | 0.00 | 84 | 1012.4 |
| 20260506132648 | 11 | 72 | 3.2 | 3.2 | 0.00 | 0.00 | 0.00 | 84 | 1012.4 |
| 20260506132145 | 11 | 336 | 6.4 | 6.4 | 0.00 | 0.00 | 0.00 | 84 | 1012.0 |
| 20260506131643 | 11 | 318 | 6.4 | 6.4 | 0.00 | 0.00 | 0.00 | 84 | 1012.0 |
| 20260506131139 | 11 | 306 | 6.4 | 6.4 | 0.00 | 0.00 | 0.00 | 84 | 1011.6 |
| 20260506130636 | 11 | 67 | 8.0 | 8.0 | 0.00 | 0.00 | 0.00 | 84 | 1012.0 |
| 20260506130133 | 11 | 12 | 0.0 | 0.0 | 0.00 | 0.00 | 0.00 | 84 | 1011.6 |
| 20260506125631 | 11 | 324 | 0.0 | 0.0 | 0.00 | 0.00 | 0.00 | 84 | 1011.6 |
| 20260506125128 | 11 | 326 | 3.2 | 3.2 | 0.00 | 0.00 | 0.00 | 85 | 1011.6 |
| 20260506124626 | 11 | 318 | 3.2 | 3.2 | 0.00 | 0.00 | 0.00 | 85 | 1011.2 |
| 20260506124124 | 11 | 44 | 4.8 | 4.8 | 0.00 | 0.00 | 0.00 | 84 | 1011.6 |
| 20260506123621 | 11 | 324 | 3.2 | 3.2 | 0.00 | 0.00 | 0.00 | 85 | 1011.6 |
| 20260506123120 | 11 | 54 | 3.2 | 3.2 | 0.00 | 0.00 | 0.00 | 84 | 1011.2 |
| 20260506122616 | 11 | 318 | 6.4 | 6.4 | 0.00 | 0.00 | 0.00 | 84 | 1011.2 |
| 20260506122114 | 11 | 318 | 3.2 | 3.2 | 0.00 | 0.00 | 0.00 | 84 | 1011.2 |
| 20260506121612 | 11 | 324 | 3.2 | 3.2 | 0.00 | 0.00 | 0.00 | 84 | 1011.2 |
| 20260506121108 | 11 | 324 | 4.8 | 4.8 | 0.00 | 0.00 | 0.00 | 84 | 1011.6 |
| 20260506120606 | 11 | 300 | 6.4 | 6.4 | 0.00 | 0.00 | 0.00 | 84 | 1011.6 |
| 20260506115601 | 11 | 294 | 6.4 | 6.4 | 0.00 | 0.00 | 0.00 | 83 | 1011.2 |
| 20260506115059 | 11 | 312 | 4.8 | 4.8 | 0.00 | 0.00 | 0.00 | 83 | 1011.2 |
| 20260506114556 | 11 | 306 | 8.0 | 8.0 | 0.00 | 0.00 | 0.00 | 83 | 1011.2 |
| 20260506114054 | 11 | 300 | 4.8 | 4.8 | 0.00 | 0.00 | 0.00 | 82 | 1010.9 |
| 20260506113552 | 11 | 312 | 6.4 | 6.4 | 0.00 | 0.00 | 0.00 | 82 | 1010.9 |
| 20260506113049 | 11 | 318 | 9.7 | 9.7 | 0.00 | 0.00 | 0.00 | 82 | 1010.2 |
| 20260506112545 | 12 | 336 | 3.2 | 3.2 | 0.00 | 0.00 | 0.00 | 81 | 1010.2 |
| 20260506112043 | 12 | 26 | 6.4 | 6.4 | 0.00 | 0.00 | 0.00 | 80 | 1010.2 |
| 20260506111541 | 12 | 312 | 6.4 | 6.4 | 0.00 | 0.00 | 0.00 | 79 | 1010.2 |
| 20260506111038 | 12 | 318 | 8.0 | 9.7 | 0.00 | 0.00 | 0.00 | 78 | 1010.2 |
| 20260506110535 | 12 | 331 | 3.2 | 3.2 | 0.00 | 0.00 | 0.00 | 77 | 1010.2 |
| 20260506110033 | 12 | 288 | 3.2 | 3.2 | 0.00 | 0.00 | 0.00 | 77 | 1009.9 |
| 20260506105528 | 12 | 67 | 4.8 | 4.8 | 0.00 | 0.00 | 0.00 | 77 | 1009.9 |
| 20260506105026 | 12 | 330 | 4.8 | 4.8 | 0.00 | 0.00 | 0.00 | 77 | 1009.9 |
| 20260506104524 | 12 | 72 | 6.4 | 6.4 | 0.00 | 0.00 | 0.00 | 77 | 1009.9 |
| 20260506104021 | 12 | 288 | 4.8 | 4.8 | 0.00 | 0.00 | 0.00 | 77 | 1009.9 |
| 20260506103518 | 12 | 36 | 6.4 | 8.0 | 0.00 | 0.00 | 0.00 | 77 | 1009.9 |
| 20260506103015 | 13 | 318 | 4.8 | 4.8 | 0.00 | 0.00 | 0.00 | 76 | 1009.6 |
| 20260506102514 | 13 | 300 | 4.8 | 6.4 | 0.00 | 0.00 | 0.00 | 76 | 1009.6 |
| 20260506102010 | 13 | 324 | 6.4 | 6.4 | 0.00 | 0.00 | 0.00 | 75 | 1009.6 |
| 20260506101507 | 13 | 72 | 3.2 | 3.2 | 0.00 | 0.00 | 0.00 | 76 | 1009.9 |
| 20260506101004 | 13 | 312 | 4.8 | 4.8 | 0.00 | 0.00 | 0.00 | 76 | 1009.6 |
| 20260506100502 | 13 | 288 | 4.8 | 6.4 | 0.00 | 0.00 | 0.00 | 76 | 1009.2 |
| 20260506100000 | 13 | 325 | 4.8 | 4.8 | 0.00 | 0.00 | 0.00 | 76 | 1008.9 |
| 20260506095459 | 13 | 332 | 3.2 | 3.2 | 0.00 | 0.00 | 0.00 | 76 | 1008.9 |
| 20260506094954 | 13 | 286 | 4.8 | 4.8 | 0.00 | 0.00 | 0.00 | 76 | 1009.2 |
| 20260506094453 | 13 | 47 | 1.6 | 1.6 | 0.00 | 0.00 | 0.00 | 76 | 1008.9 |
| 20260506093950 | 13 | 342 | 3.2 | 3.2 | 0.00 | 0.00 | 0.00 | 75 | 1009.2 |
| 20260506093448 | 13 | 331 | 4.8 | 4.8 | 0.00 | 0.00 | 0.00 | 76 | 1008.9 |
| 20260506092945 | 13 | 342 | 4.8 | 4.8 | 0.00 | 0.00 | 0.00 | 76 | 1008.9 |
| 20260506092443 | 13 | 38 | 3.2 | 3.2 | 0.00 | 0.00 | 0.00 | 76 | 1008.9 |
| 20260506091939 | 13 | 19 | 8.0 | 9.7 | 0.00 | 0.00 | 0.00 | 75 | 1008.5 |
| 20260506091438 | 13 | 342 | 3.2 | 3.2 | 0.00 | 0.00 | 0.00 | 75 | 1008.9 |
| 20260506090935 | 13 | 318 | 4.8 | 4.8 | 0.00 | 0.00 | 0.00 | 76 | 1008.9 |
| 20260506090432 | 13 | 348 | 3.2 | 3.2 | 0.00 | 0.00 | 0.00 | 76 | 1008.9 |
| 20260506085929 | 13 | 326 | 4.8 | 4.8 | 0.00 | 0.00 | 0.00 | 75 | 1008.9 |
| 20260506085426 | 13 | 306 | 4.8 | 4.8 | 0.00 | 0.00 | 0.00 | 75 | 1008.2 |
| 20260506084922 | 13 | 348 | 0.0 | 0.0 | 0.00 | 0.00 | 0.00 | 75 | 1008.5 |
| 20260506084419 | 13 | 306 | 4.8 | 6.4 | 0.00 | 0.00 | 0.00 | 76 | 1008.2 |
| 20260506083915 | 13 | 330 | 3.2 | 3.2 | 0.00 | 0.00 | 0.00 | 76 | 1008.5 |
| 20260506083413 | 13 | 336 | 3.2 | 3.2 | 0.00 | 0.00 | 0.00 | 76 | 1008.2 |
| 20260506082910 | 13 | 306 | 6.4 | 6.4 | 0.00 | 0.00 | 0.00 | 76 | 1008.5 |
| 20260506082407 | 13 | 44 | 3.2 | 3.2 | 0.00 | 0.00 | 0.00 | 77 | 1008.2 |
| 20260506081902 | 13 | 300 | 3.2 | 3.2 | 0.00 | 0.00 | 0.00 | 77 | 1008.5 |
| 20260506081401 | 13 | 37 | 0.0 | 0.0 | 0.00 | 0.00 | 0.00 | 78 | 1008.5 |
| 20260506080858 | 13 | 12 | 0.0 | 0.0 | 0.00 | 0.00 | 0.00 | 78 | 1008.5 |
| 20260506080355 | 13 | 41 | 3.2 | 3.2 | 0.00 | 0.00 | 0.00 | 78 | 1008.2 |
| 20260506073338 | 13 | 48 | 3.2 | 3.2 | 0.00 | 0.00 | 0.00 | 78 | 1007.5 |
| 20260506072835 | 13 | 41 | 1.6 | 1.6 | 0.00 | 0.00 | 0.00 | 78 | 1007.9 |
| 20260506072333 | 14 | 72 | 6.4 | 8.0 | 0.00 | 0.00 | 0.00 | 78 | 1007.9 |
| 20260506071831 | 14 | 312 | 3.2 | 3.2 | 0.00 | 0.00 | 0.00 | 78 | 1007.9 |
| 20260506071329 | 14 | 57 | 8.0 | 9.7 | 0.00 | 0.00 | 0.00 | 78 | 1007.9 |
| 20260506070825 | 14 | 320 | 3.2 | 3.2 | 0.00 | 0.00 | 0.00 | 78 | 1007.5 |
| 20260506070322 | 14 | 312 | 6.4 | 6.4 | 0.00 | 0.00 | 0.00 | 78 | 1007.9 |
| 20260506062259 | 14 | 300 | 3.2 | 3.2 | 0.00 | 0.00 | 0.00 | 78 | 1008.2 |
| 20260506061755 | 15 | 294 | 6.4 | 6.4 | 0.00 | 0.00 | 0.00 | 78 | 1008.2 |
| 20260506061252 | 15 | 288 | 8.0 | 8.0 | 0.00 | 0.00 | 0.00 | 78 | 1008.2 |
| 20260506060751 | 15 | 330 | 3.2 | 3.2 | 0.00 | 0.00 | 0.00 | 78 | 1008.2 |
| 20260506060248 | 15 | 33 | 3.2 | 3.2 | 0.00 | 0.00 | 0.00 | 78 | 1007.9 |
| 20260506051215 | 15 | 318 | 4.8 | 4.8 | 0.00 | 0.00 | 0.00 | 80 | 1008.2 |
| 20260506050713 | 15 | 318 | 3.2 | 3.2 | 0.00 | 0.00 | 0.00 | 80 | 1008.2 |
| 20260506050210 | 15 | 38 | 3.2 | 3.2 | 0.00 | 0.00 | 0.00 | 81 | 1008.2 |
| 20260506044700 | 15 | 332 | 1.6 | 1.6 | 0.00 | 0.00 | 0.00 | 81 | 1007.9 |
| 20260506044157 | 15 | 37 | 4.8 | 4.8 | 0.00 | 0.00 | 0.00 | 81 | 1007.9 |
| 20260506043654 | 16 | 320 | 0.0 | 0.0 | 0.00 | 0.00 | 0.00 | 81 | 1008.2 |
| 20260506043152 | 16 | 320 | 4.8 | 4.8 | 0.00 | 0.00 | 0.00 | 81 | 1008.2 |
| 20260506042651 | 16 | 252 | 3.2 | 3.2 | 0.00 | 0.00 | 0.00 | 81 | 1008.2 |
| 20260506042149 | 16 | 306 | 4.8 | 4.8 | 0.00 | 0.00 | 0.00 | 81 | 1007.9 |
| 20260506041652 | 16 | 282 | 4.8 | 4.8 | 0.00 | 0.00 | 0.00 | 80 | 1007.9 |
| 20260506041143 | 16 | 294 | 4.8 | 4.8 | 0.00 | 0.00 | 0.00 | 80 | 1007.9 |
| 20260506040636 | 16 | 23 | 3.2 | 3.2 | 0.00 | 0.00 | 0.00 | 80 | 1007.5 |
| 20260506040132 | 16 | 19 | 8.0 | 8.0 | 0.00 | 0.00 | 0.00 | 80 | 1007.5 |
| 20260506035629 | 16 | 306 | 4.8 | 4.8 | 0.00 | 0.00 | 0.00 | 80 | 1007.2 |
| 20260506035125 | 16 | 300 | 8.0 | 8.0 | 0.00 | 0.00 | 0.00 | 80 | 1007.2 |
| 20260506034622 | 16 | 18 | 3.2 | 3.2 | 0.00 | 0.00 | 0.00 | 80 | 1007.2 |
| 20260506034119 | 16 | 312 | 8.0 | 8.0 | 0.00 | 0.00 | 0.00 | 80 | 1007.2 |
| 20260506033616 | 17 | 318 | 3.2 | 3.2 | 0.00 | 0.00 | 0.00 | 80 | 1007.5 |
| 20260506033113 | 17 | 31 | 4.8 | 4.8 | 0.00 | 0.00 | 0.00 | 80 | 1007.5 |
| 20260506032606 | 17 | 312 | 3.2 | 3.2 | 0.00 | 0.00 | 0.00 | 80 | 1007.2 |
| 20260506032102 | 17 | 312 | 0.0 | 0.0 | 0.00 | 0.00 | 0.00 | 80 | 1007.2 |
| 20260506031600 | 17 | 318 | 3.2 | 3.2 | 0.00 | 0.00 | 0.00 | 80 | 1007.2 |
| 20260506031056 | 17 | 318 | 3.2 | 3.2 | 0.00 | 0.00 | 0.00 | 80 | 1007.2 |
| 20260506030555 | 17 | 314 | 4.8 | 4.8 | 0.00 | 0.00 | 0.00 | 80 | 1006.8 |
| 20260506030052 | 17 | 306 | 4.8 | 4.8 | 0.00 | 0.00 | 0.00 | 80 | 1006.8 |
| 20260506025549 | 17 | 279 | 3.2 | 3.2 | 0.00 | 0.00 | 0.00 | 80 | 1006.5 |
| 20260506025044 | 17 | 330 | 4.8 | 4.8 | 0.00 | 0.00 | 0.00 | 79 | 1006.5 |
| 20260506024541 | 18 | 319 | 4.8 | 6.4 | 0.00 | 0.00 | 0.00 | 79 | 1006.5 |
| 20260506024037 | 18 | 320 | 4.8 | 4.8 | 0.00 | 0.00 | 0.00 | 79 | 1006.5 |
| 20260506023533 | 18 | 306 | 4.8 | 6.4 | 0.00 | 0.00 | 0.00 | 79 | 1006.5 |
| 20260506023031 | 18 | 320 | 3.2 | 3.2 | 0.00 | 0.00 | 0.00 | 79 | 1005.7 |
| 20260506022528 | 18 | 309 | 6.4 | 6.4 | 0.00 | 0.00 | 0.00 | 78 | 1005.7 |
| 20260506022021 | 18 | 319 | 3.2 | 3.2 | 0.00 | 0.00 | 0.00 | 79 | 1005.4 |
| 20260506021518 | 19 | 349 | 0.0 | 0.0 | 0.00 | 0.00 | 0.00 | 79 | 1005.4 |
| 20260506021015 | 19 | 314 | 4.8 | 4.8 | 0.00 | 0.00 | 0.00 | 78 | 1005.4 |
| 20260506020513 | 19 | 0 | 0.0 | 0.0 | 0.00 | 0.00 | 0.00 | 78 | 1005.0 |
| 20260506020010 | 19 | 321 | 3.2 | 3.2 | 0.00 | 0.00 | 0.00 | 78 | 1005.4 |
| 20260506015507 | 19 | 25 | 3.2 | 3.2 | 0.00 | 0.00 | 0.00 | 78 | 1005.0 |
| 20260506015004 | 19 | 46 | 3.2 | 3.2 | 0.00 | 0.00 | 0.00 | 78 | 1005.0 |
| 20260506014502 | 19 | 67 | 6.4 | 6.4 | 0.00 | 0.00 | 0.00 | 78 | 1004.7 |
| 20260506013957 | 20 | 327 | 0.0 | 0.0 | 0.00 | 0.00 | 0.00 | 77 | 1004.7 |
| 20260506013455 | 20 | 327 | 0.0 | 0.0 | 0.00 | 0.00 | 0.00 | 77 | 1004.7 |
| 20260506012951 | 20 | 327 | 3.2 | 3.2 | 0.00 | 0.00 | 0.00 | 76 | 1004.4 |
| 20260506012448 | 20 | 268 | 0.0 | 0.0 | 0.00 | 0.00 | 0.00 | 75 | 1004.7 |
| 20260506011945 | 20 | 248 | 0.0 | 0.0 | 0.00 | 0.00 | 0.00 | 75 | 1004.4 |
| 20260506011442 | 20 | 248 | 3.2 | 3.2 | 0.00 | 0.00 | 0.00 | 74 | 1004.4 |
| 20260506010939 | 20 | 306 | 0.0 | 0.0 | 0.00 | 0.00 | 0.00 | 74 | 1004.0 |
| 20260506010438 | 20 | 319 | 6.4 | 6.4 | 0.00 | 0.00 | 0.00 | 74 | 1004.0 |
| 20260506005934 | 20 | 252 | 0.0 | 0.0 | 0.00 | 0.00 | 0.00 | 73 | 1004.0 |
| 20260506005432 | 20 | 306 | 3.2 | 3.2 | 0.00 | 0.00 | 0.00 | 73 | 1004.0 |
| 20260506004932 | 20 | 298 | 8.0 | 9.7 | 0.00 | 0.00 | 0.00 | 73 | 1003.7 |
| 20260506004430 | 20 | 320 | 4.8 | 4.8 | 0.00 | 0.00 | 0.00 | 73 | 1003.7 |
| 20260506003926 | 21 | 313 | 4.8 | 4.8 | 0.00 | 0.00 | 0.00 | 73 | 1003.4 |
| 20260506003423 | 21 | 324 | 6.4 | 8.0 | 0.00 | 0.00 | 0.00 | 73 | 1003.7 |
| 20260506002919 | 21 | 307 | 3.2 | 3.2 | 0.00 | 0.00 | 0.00 | 73 | 1003.0 |
| 20260506002415 | 21 | 37 | 6.4 | 6.4 | 0.00 | 0.00 | 0.00 | 72 | 1003.4 |
| 20260506001910 | 21 | 326 | 3.2 | 3.2 | 0.00 | 0.00 | 0.00 | 71 | 1003.4 |
| 20260506001408 | 22 | 318 | 3.2 | 3.2 | 0.00 | 0.00 | 0.00 | 70 | 1003.4 |
| 20260506000905 | 22 | 306 | 4.8 | 4.8 | 0.00 | 0.00 | 0.00 | 70 | 1003.7 |
| 20260506000403 | 22 | 302 | 6.4 | 6.4 | 0.00 | 0.00 | 0.00 | 70 | 1003.0 |
| 20260505235859 | 22 | 299 | 9.7 | 11.3 | 0.00 | 0.00 | 0.00 | 69 | 1003.4 |
| 20260505235357 | 22 | 50 | 6.4 | 6.4 | 0.00 | 0.00 | 0.00 | 69 | 1003.7 |
| 20260505234853 | 22 | 317 | 4.8 | 6.4 | 0.00 | 0.00 | 0.00 | 68 | 1003.0 |
| 20260505234351 | 23 | 314 | 3.2 | 3.2 | 0.00 | 0.00 | 0.00 | 67 | 1003.4 |
| 20260505233848 | 23 | 316 | 6.4 | 6.4 | 0.00 | 0.00 | 0.00 | 67 | 1003.4 |
| 20260505233346 | 23 | 261 | 6.4 | 6.4 | 0.00 | 0.00 | 0.00 | 67 | 1003.0 |
| 20260505232843 | 23 | 300 | 6.4 | 6.4 | 0.00 | 0.00 | 0.00 | 68 | 1003.0 |
| 20260505232341 | 23 | 301 | 9.7 | 9.7 | 0.00 | 0.00 | 0.00 | 67 | 1002.7 |
| 20260505231837 | 24 | 299 | 4.8 | 4.8 | 0.00 | 0.00 | 0.00 | 67 | 1002.7 |
| 20260505231335 | 24 | 308 | 3.2 | 3.2 | 0.00 | 0.00 | 0.00 | 66 | 1002.7 |
| 20260505230833 | 25 | 318 | 4.8 | 4.8 | 0.00 | 0.00 | 0.00 | 65 | 1002.7 |
| 20260505230330 | 25 | 240 | 8.0 | 9.7 | 0.00 | 0.00 | 0.00 | 63 | 1002.7 |
| 20260505225826 | 25 | 313 | 6.4 | 6.4 | 0.00 | 0.00 | 0.00 | 64 | 1002.7 |
| 20260505225324 | 25 | 318 | 3.2 | 3.2 | 0.00 | 0.00 | 0.00 | 64 | 1002.7 |
| 20260505224819 | 25 | 311 | 6.4 | 6.4 | 0.00 | 0.00 | 0.00 | 65 | 1002.7 |
| 20260505224317 | 25 | 314 | 3.2 | 3.2 | 0.00 | 0.00 | 0.00 | 64 | 1002.3 |
| 20260505223814 | 26 | 320 | 6.4 | 6.4 | 0.00 | 0.00 | 0.00 | 63 | 1002.3 |
| 20260505223311 | 26 | 306 | 4.8 | 6.4 | 0.00 | 0.00 | 0.00 | 62 | 1002.0 |
| 20260505222806 | 27 | 310 | 3.2 | 3.2 | 0.00 | 0.00 | 0.00 | 59 | 1002.0 |
| 20260505222305 | 27 | 268 | 0.0 | 0.0 | 0.00 | 0.00 | 0.00 | 58 | 1001.7 |
| 20260505221800 | 27 | 317 | 0.0 | 0.0 | 0.00 | 0.00 | 0.00 | 56 | 1001.7 |
| 20260505221256 | 28 | 328 | 3.2 | 3.2 | 0.00 | 0.00 | 0.00 | 55 | 1002.0 |
| 20260505220753 | 28 | 316 | 8.0 | 9.7 | 0.00 | 0.00 | 0.00 | 55 | 1002.0 |
| 20260505220251 | 29 | 324 | 6.4 | 6.4 | 0.00 | 0.00 | 0.00 | 53 | 1001.7 |
| 20260505215749 | 28 | 289 | 4.8 | 4.8 | 0.00 | 0.00 | 0.00 | 53 | 1001.7 |
| 20260505215246 | 28 | 318 | 8.0 | 8.0 | 0.00 | 0.00 | 0.00 | 51 | 1001.7 |
| 20260505214744 | 28 | 313 | 1.6 | 1.6 | 0.00 | 0.00 | 0.00 | 49 | 1001.7 |
| 20260505214242 | 28 | 254 | 4.8 | 6.4 | 0.00 | 0.00 | 0.00 | 48 | 1001.7 |
| 20260505213738 | 29 | 265 | 0.0 | 0.0 | 0.00 | 0.00 | 0.00 | 47 | 1001.7 |
| 20260505213236 | 29 | 306 | 0.0 | 0.0 | 0.00 | 0.00 | 0.00 | 45 | 1001.7 |
| 20260505212731 | 29 | 307 | 6.4 | 8.0 | 0.00 | 0.00 | 0.00 | 45 | 1001.7 |
| 20260505212229 | 29 | 320 | 0.0 | 0.0 | 0.00 | 0.00 | 0.00 | 44 | 1001.7 |
| 20260505211726 | 30 | 290 | 4.8 | 4.8 | 0.00 | 0.00 | 0.00 | 44 | 1001.7 |
| 20260505211224 | 30 | 312 | 6.4 | 6.4 | 0.00 | 0.00 | 0.00 | 44 | 1001.7 |
| 20260505210720 | 30 | 270 | 6.4 | 6.4 | 0.00 | 0.00 | 0.00 | 44 | 1001.7 |
| 20260505210217 | 30 | 295 | 3.2 | 3.2 | 0.00 | 0.00 | 0.00 | 46 | 1002.0 |
| 20260505205714 | 30 | 306 | 6.4 | 6.4 | 0.00 | 0.00 | 0.00 | 46 | 1002.0 |
| 20260505205213 | 30 | 225 | 9.7 | 9.7 | 0.00 | 0.00 | 0.00 | 50 | 1002.0 |
| 20260505204708 | 30 | 220 | 6.4 | 8.0 | 0.00 | 0.00 | 0.00 | 55 | 1002.0 |
| 20260505204206 | 29 | 252 | 0.0 | 0.0 | 0.00 | 0.00 | 0.00 | 57 | 1002.0 |
| 20260505203658 | 29 | 258 | 6.4 | 6.4 | 0.00 | 0.00 | 0.00 | 55 | 1002.0 |
| 20260505203154 | 29 | 259 | 0.0 | 0.0 | 0.00 | 0.00 | 0.00 | 56 | 1002.0 |
| 20260505202650 | 30 | 246 | 0.0 | 0.0 | 0.00 | 0.00 | 0.00 | 58 | 1002.0 |
| 20260505202147 | 29 | 220 | 0.0 | 0.0 | 0.00 | 0.00 | 0.00 | 57 | 1002.0 |
| 20260505201643 | 29 | 240 | 0.0 | 0.0 | 0.00 | 0.00 | 0.00 | 62 | 1002.3 |
| 20260505201141 | 28 | 244 | 0.0 | 0.0 | 0.00 | 0.00 | 0.00 | 58 | 1002.3 |
| 20260505200639 | 30 | 240 | 0.0 | 0.0 | 0.00 | 0.00 | 0.00 | 57 | 1002.3 |
| 20260505200136 | 29 | 149 | 0.0 | 0.0 | 0.00 | 0.00 | 0.00 | 59 | 1002.0 |
| 20260505195631 | 29 | 204 | 6.4 | 6.4 | 0.00 | 0.00 | 0.00 | 57 | 1002.0 |
| 20260505195128 | 30 | 252 | 0.0 | 0.0 | 0.00 | 0.00 | 0.00 | 59 | 1002.0 |
| 20260505194620 | 30 | 252 | 3.2 | 3.2 | 0.00 | 0.00 | 0.00 | 59 | 1002.0 |
| 20260505194116 | 30 | 214 | 8.0 | 8.0 | 0.00 | 0.00 | 0.00 | 58 | 1002.7 |
| 20260505193613 | 30 | 250 | 0.0 | 0.0 | 0.00 | 0.00 | 0.00 | 59 | 1002.7 |
| 20260505193110 | 29 | 234 | 3.2 | 3.2 | 0.00 | 0.00 | 0.00 | 59 | 1002.3 |
| 20260505192609 | 28 | 228 | 6.4 | 8.0 | 0.00 | 0.00 | 0.00 | 58 | 1002.3 |
| 20260505192106 | 29 | 254 | 0.0 | 0.0 | 0.00 | 0.00 | 0.00 | 62 | 1002.0 |
| 20260505191604 | 28 | 246 | 0.0 | 0.0 | 0.00 | 0.00 | 0.00 | 58 | 1002.3 |
| 20260505191102 | 28 | 108 | 0.0 | 0.0 | 0.00 | 0.00 | 0.00 | 57 | 1002.3 |
| 20260505190556 | 28 | 264 | 0.0 | 0.0 | 0.00 | 0.00 | 0.00 | 61 | 1002.3 |
| 20260505190052 | 29 | 260 | 0.0 | 0.0 | 0.00 | 0.00 | 0.00 | 61 | 1002.3 |
| 20260505185549 | 30 | 246 | 0.0 | 0.0 | 0.00 | 0.00 | 0.00 | 59 | 1002.0 |
| 20260505185046 | 29 | 244 | 0.0 | 0.0 | 0.00 | 0.00 | 0.00 | 60 | 1002.0 |
| 20260505184542 | 29 | 99 | 0.0 | 0.0 | 0.00 | 0.00 | 0.00 | 60 | 1002.3 |
| 20260505184039 | 30 | 164 | 0.0 | 0.0 | 0.00 | 0.00 | 0.00 | 59 | 1002.3 |
| 20260505183536 | 29 | 220 | 0.0 | 0.0 | 0.00 | 0.00 | 0.00 | 59 | 1002.3 |
| 20260505183033 | 29 | 85 | 0.0 | 0.0 | 0.00 | 0.00 | 0.00 | 62 | 1002.3 |
| 20260505182530 | 28 | 214 | 0.0 | 0.0 | 0.00 | 0.00 | 0.00 | 60 | 1002.0 |
| 20260505182026 | 28 | 228 | 0.0 | 0.0 | 0.00 | 0.00 | 0.00 | 61 | 1002.0 |
| 20260505181523 | 30 | 243 | 0.0 | 0.0 | 0.00 | 0.00 | 0.00 | 62 | 1002.3 |
| 20260505181021 | 29 | 240 | 0.0 | 0.0 | 0.00 | 0.00 | 0.00 | 61 | 1002.3 |
| 20260505180516 | 29 | 228 | 0.0 | 0.0 | 0.00 | 0.00 | 0.00 | 63 | 1002.3 |
| 20260505180015 | 29 | 213 | 0.0 | 0.0 | 0.00 | 0.00 | 0.00 | 64 | 1002.3 |
| 20260505175509 | 28 | 228 | 0.0 | 0.0 | 0.00 | 0.00 | 0.00 | 64 | 1002.3 |
| 20260505175006 | 28 | 216 | 3.2 | 3.2 | 0.00 | 0.00 | 0.00 | 64 | 1002.3 |
| 20260505174503 | 28 | 222 | 0.0 | 0.0 | 0.00 | 0.00 | 0.00 | 64 | 1002.3 |
| 20260505173959 | 28 | 258 | 0.0 | 0.0 | 0.00 | 0.00 | 0.00 | 67 | 1002.0 |
| 20260505173455 | 27 | 182 | 0.0 | 0.0 | 0.00 | 0.00 | 0.00 | 67 | 1002.3 |
| 20260505172953 | 27 | 227 | 0.0 | 0.0 | 0.00 | 0.00 | 0.00 | 67 | 1002.0 |
| 20260505172451 | 28 | 244 | 0.0 | 0.0 | 0.00 | 0.00 | 0.00 | 67 | 1002.3 |
| 20260505171950 | 27 | 228 | 0.0 | 0.0 | 0.00 | 0.00 | 0.00 | 67 | 1002.3 |
| 20260505171447 | 27 | 252 | 0.0 | 0.0 | 0.00 | 0.00 | 0.00 | 68 | 1002.3 |
| 20260505170944 | 27 | 204 | 0.0 | 0.0 | 0.00 | 0.00 | 0.00 | 69 | 1002.3 |
| 20260505170440 | 26 | 222 | 0.0 | 0.0 | 0.00 | 0.00 | 0.00 | 71 | 1002.3 |
| 20260505165935 | 26 | 226 | 0.0 | 0.0 | 0.00 | 0.00 | 0.00 | 70 | 1002.7 |
| 20260505165426 | 26 | 216 | 0.0 | 0.0 | 0.00 | 0.00 | 0.00 | 71 | 1002.3 |
| 20260505164921 | 26 | 204 | 0.0 | 0.0 | 0.00 | 0.00 | 0.00 | 71 | 1002.3 |
| 20260505164418 | 26 | 215 | 0.0 | 0.0 | 0.00 | 0.00 | 0.00 | 72 | 1002.3 |
| 20260505163916 | 26 | 120 | 0.0 | 0.0 | 0.00 | 0.00 | 0.00 | 72 | 1002.3 |
| 20260505163415 | 26 | 241 | 0.0 | 0.0 | 0.00 | 0.00 | 0.00 | 72 | 1002.7 |
| 20260505162914 | 26 | 239 | 4.8 | 6.4 | 0.00 | 0.00 | 0.00 | 72 | 1002.3 |
| 20260505162409 | 25 | 81 | 0.0 | 0.0 | 0.00 | 0.00 | 0.00 | 72 | 1002.3 |
| 20260505161907 | 25 | 260 | 0.0 | 0.0 | 0.00 | 0.00 | 0.00 | 72 | 1002.0 |
| 20260505161404 | 25 | 56 | 0.0 | 0.0 | 0.00 | 0.00 | 0.00 | 74 | 1002.3 |
| 20260505160901 | 25 | 252 | 0.0 | 0.0 | 0.00 | 0.00 | 0.00 | 73 | 1002.0 |
| 20260505160359 | 25 | 216 | 0.0 | 0.0 | 0.00 | 0.00 | 0.00 | 73 | 1002.0 |
| 20260505153337 | 26 | 204 | 0.0 | 0.0 | 0.00 | 0.00 | 0.00 | 71 | 1002.0 |
| 20260505152834 | 25 | 241 | 0.0 | 0.0 | 0.00 | 0.00 | 0.00 | 73 | 1002.0 |
| 20260505152331 | 25 | 86 | 0.0 | 0.0 | 0.00 | 0.00 | 0.00 | 73 | 1002.0 |
| 20260505151826 | 26 | 222 | 1.6 | 1.6 | 0.00 | 0.00 | 0.00 | 72 | 1002.0 |
| 20260505151323 | 25 | 222 | 0.0 | 0.0 | 0.00 | 0.00 | 0.00 | 74 | 1002.0 |
| 20260505150820 | 25 | 236 | 3.2 | 3.2 | 0.00 | 0.00 | 0.00 | 76 | 1002.0 |
| 20260505150317 | 25 | 215 | 0.0 | 0.0 | 0.00 | 0.00 | 0.00 | 77 | 1002.3 |
| 20260505140246 | 23 | 211 | 0.0 | 0.0 | 0.00 | 0.00 | 0.00 | 79 | 1001.7 |